Showing default

FGN-TUG-S01, 100399

Orbit data source: Space-Track

FGN-TUG-S01, 100399 is a Turkish payload satellite in SSO that was launched on Fri, 28 Nov 2025 UTC launched from the Air Force Western Test Range (AFWTR). Payload-class satellites include a variety of spacecraft equipped with specific instruments for various scientific and technological missions. These include communications satellites like Starlink; space stations such as the ISS; scientific satellites like the Hubble; Earth observation satellites from companies like Planet Labs, Umbra, and HawkEye 360; GPS; miniature CubeSats for education and research; and military/defense satellites.

Loading next visibility...
Identifier
100399, 2025-276EE
Orbit
SSO
Country
Flag of TRTR / TURK
Related business
Manufacturer
FERG
Mission
Operational spacecraft
Bus & Motor
FGN-100, Unknown motor
Mass
102 kg wet, 102 kg dry
Launch date (UTC)
2025-11-28 (9 months ago)
Launch vehicle
Unknown
Launch site
Air Force Western Test Range (AFWTR)
Object type
Payload
Rocket body
Debris
Shape & HBR
BOX, 0.5 m
Radar Cross Section
Medium (>0.1 m² and <1 m²)

Expand to show TLE details & history
Last TLE update: 17 hours ago

TLE from 17 hours ago
0 FGN-TUG-S01
1 A0399U 25276EE  26238.07514830  .00000224  00000-0  60694-4 0  9999
2 A0399  97.3798 268.4026 0469846 270.5035  84.2336 14.06179016 36339
Epoch: 2026-08-26T01:48Z
TLE epoch observation values (Epoch: 2026-08-26T01:48:12.813Z)
Latitude
-0.00005°
Longitude
-92.98414°
Altitude
857.121 km
Speed
7.433 km/s
True Right ascension
17h 53m 36s
True Declination
0° 00' 00"
Sunlit
Object was in daylight at epoch
Visualization orbit readout
Latitude
Unknown
Longitude
Unknown
Altitude
Unknown
Speed
Unknown
Apparent Right ascension
Unknown
Apparent Declination
Unknown
Sunlit
N/A
Visualization observer readout
Local Sidereal Time
09:52:01
Azimuth
Unknown
Elevation
Unknown
Doppler factor
Unknown
Orbital elements
Apogee altitude
1,210.117 km
Perigee altitude
529.054 km
Semi-major axis
7,247.723 km
Eccentricity
0.04698
Inclination
97.3798°
RAAN
268.4026°
Arg. of periapsis
270.5035°
True anomaly
89.61426°
Mean anomaly
84.2336°
Eccentric anomaly
86.92174°
Mean motion
3.51755 °/min
Orbital period
102.34 mins
BSTAR
0.000060694
Loading maneuver chart data...
Computing Atmospheric mass density...
Loading historical data...
Loading historical data...
Loading historical data...
Loading historical data...
Loading historical data...
Loading historical data...
Loading historical data...

Documentation

Showing up to 5 results
|